Погода в Очо-Риос

Ямайка     18°23′53″N   77°06′08″W
темп.,
°C
ветер,
м/с
пор.,
м/с
влажн.,
%
обл.,
%
осадки,
мм/ч
давл.,
гПа
погр.,
м
4 марта, чт
чт401:00+26юз227519 0.3 1016267
04:00+25ю22760 0.1 1015339
07:00+25ююз12760 0.1 1016361
10:00+25з01730 0.0 1017367
13:00+25св33730 0.0 1015301
16:00+25юз11706 0.1 1014469
19:00+26зюз22725 0.2 1014479
22:00+26зюз33730 0.1 1015461
5 марта, пт
пт501:00+25з34740 0.1 1014596
04:00+25з44766 0.8 1013479
07:00+25зюз33743 1.3 1014482
10:00+25сз12710 0.1 1015380
13:00+25ссв33720 0.2 1013409
16:00+26св126614 0.1 1012642
19:00+25юз217155 0.4 1013269
22:00+25юз117341 0.5 1014200
6 марта, сб
сб601:00+25ю217420 0.5 1013291
04:00+24ю22760 0.3 1012197
07:00+24ююв22740 0.3 1014253
10:00+25в23690 0.0 1015327
13:00+25всв55710 0.0 1014432
16:00+26всв34680 0.0 1012560
19:00+26с11650 0.1 1014769
22:00+26з11686 0.0 1015624
7 марта, вс
вс701:00+25юз22743 0.0 1014326
04:00+25з22740 0.0 1014479
07:00+25зсз23710 0.0 1016721
10:00+25сз33743 0.0 1018617
13:00+25сз33761 0.0 1015351
16:00+26ссз33710 0.0 1014492
19:00+26ссз11690 0.0 1015611
22:00+26ссз44730 0.0 1017787
8 марта, пн
пн801:00+26ссв44710 0.0 1016984
04:00+26всв677849 0.3 1016878
07:00+26всв897974 0.8 1018898
10:00+26всв8978100 0.3 10191009
13:00+25св9107864 0.7 1018990
16:00+26всв9117553 0.8 10161224
19:00+26всв11137631 2.1 10171201
22:00+25всв11137834 2.5 10191231